Other Surface Observations
Issued by NWS Tucson, AZ

Home | Current Version | Previous Version | Text Only | Print | Product List | Glossary On
Versions: 1 2 3 4 5 6 7 8 9 10 11 12 13 14 15 16 17 18 19 20 21 22 23 24 25 26 27 28 29 30 31 32 33 34 35 36 37 38 39 40 41 42 43 44 45 46 47 48 49 50
000
SXUS55 KTWC 291815
OSOTWC

WEATHER ROUNDUP FOR SOUTHEAST ARIZONA
NATIONAL WEATHER SERVICE TUCSON AZ
1115 AM MST THU JAN 29 2015

AZZ504>506-514-291915-
LOCATION       SKY/WX    TMP DP  RH WIND       PRES   REMARKS
TUCSON         CLOUDY    64  45  49 S5        30.12S
DAVIS-MONTHAN  CLOUDY    67  41  39 W8        30.09F
CHILDRENS PARK N/A       58  47  66 SE7               PIMA CO DEQ
ALVERNON/22ND  N/A      N/A N/A N/A N/A               PIMA CO DEQ
CHERRY/GLENN   N/A      N/A N/A N/A N/A               PIMA CO DEQ
TANGERINE      N/A       60 N/A N/A S4                PIMA CO DEQ
CONTL RANCH    N/A       59  49  70 SE5               PIMA CO DEQ
GRANT/1ST      N/A       59  47  65 SE5               PIMA CO DEQ
CRAYCROFT/22ND N/A      N/A N/A N/A N/A               PIMA CO DEQ
GOLFLINKS/KOLB N/A       61  44  54 SE5               PIMA CO DEQ
AJO/12TH       N/A       59  47  64 SE7               PIMA CO DEQ
SAGUARO EAST   N/A      N/A N/A N/A N/A               PIMA CO DEQ
FAIRGROUNDS    N/A       60 N/A N/A SE13              PIMA CO DEQ
SAGUARO        N/A       60  50  69 E4                *SABINO CYN
SAN CARLOS     N/A       54  42  63 W3                *SAN CARLOS
GREEN VALLEY   N/A       58  46  64 SW8               PIMA CO DEQ
HORSE CAMP CYN N/A       58  37  45 E18G24            *ARAVAIPA CYN
RINCON MTNS    N/A       48  32  54 CALM              *NR MANNING CAMP
$$

AZZ509>511-291915-
LOCATION       SKY/WX    TMP DP  RH WIND       PRES   REMARKS
SAFFORD        CLOUDY    59  36  42 SE10      30.21R
STRAY HORSE    N/A       48  30  49 E3                *
TRAIL CABIN    N/A       52  33  48 E9G12             *N OF GRANVILLE
BLACK HILLS    N/A       60  39  46 SE3G10            *N OF FT THOMAS
DRY LAKE       N/A       49  31  50 SE7G11            *NATANES MTNS
NOON CREEK     N/A       60  36  41 SE3G10            *PINALENO MTNS
COLUMBINE      N/A       42  27  56 S5G11             *PINALENO MTNS
GUTHRIE        N/A       50  30  46 SE11G18           *SW OF GUTHRIE
$$

AZZ502-503-513-291915-
LOCATION       SKY/WX    TMP DP  RH WIND       PRES   REMARKS
NOGALES        CLOUDY    60  45  57 SW7       30.15F
SELLS          N/A       59  52  78 E3                *
SASABE         N/A       57  52  84 CALM              *ALTAR VLY
HOPKINS        N/A       51  35  54 E9G15             *SANTA RITA MTNS
CARR CYN       N/A       54  38  54 N3                *W OF HEREFORD
$$

AZZ507-508-512-291915-
LOCATION       SKY/WX    TMP DP  RH WIND       PRES   REMARKS
SIERRA VISTA   CLOUDY    61  36  39 SE9       30.22S
DOUGLAS        CLOUDY    56  34  43 N5        30.23S
EMPIRE MTNS    N/A       61  40  45 SE7G11            *LAS CIENEGAS NCA
MULESHOE RANCH N/A       59  37  43 S6                *PRESERVE
HEADQUARTERS   N/A       58  34  40 NE6G15            *CHIRICAHUA MTNS
$$

.............................NOTES.............................
THIS IS AN AUTOMATED COLLECTIVE WITH MINIMAL QUALITY CONTROL.
PIMA CO DEQ SITES HAVE NONSTANDARD WIND SENSOR HEIGHTS.
PIMA CO DEQ SITES DO NOT REPORT WIND GUSTS.
* INDICATES WIND SENSORS LOCATED AT 20 FEET INSTEAD OF 33 FEET.
..............................KEY..............................
SKY/WX - SKY CONDITION/WEATHER
TMP    - TEMPERATURE IN FAHRENHEIT
DP     - DEWPOINT IN FAHRENHEIT
RH     - RELATIVE HUMIDITY IN PERCENT
WIND   - DIRECTION AND SPEED IN MILES PER HOUR (MPH)
VRB    - VARIABLE WIND DIRECTION
PRES   - MEAN SEA LEVEL PRESSURE IN INCHES OF MERCURY
         F - FALLING PRESSURE   R - RISING PRESSURE
         S - STEADY PRESSURE
VSB    - VISIBILITY IN MILES
HX     - HEAT INDEX IN FAHRENHEIT
WCI    - WIND CHILL INDEX IN FAHRENHEIT
N/A    - NOT AVAILABLE
AFB    - AIR FORCE BASE
         DAVIS-MONTHAN IS DAVIS-MONTHAN AIR FORCE BASE
CYN    - CANYON
MTNS   - MOUNTAINS
NCA    - NATIONAL CONSERVATION AREA
NR     - NEAR
VLY    - VALLEY
CONTL  - CONTINENTAL
PIMA CO DEQ - PIMA COUNTY DEPT OF ENVIRONMENTAL QUALITY



USA.gov is the U.S. government's official web portal to all federal, state and local government web resources and services.